2014-12-16 00:03:24 r, 15.14m,0000000078Hz,0000005895c,0000000.013s, 006.1C,00002195
2014-12-16 00:13:24 r, 15.10m,0000000080Hz,0000005721c,0000000.012s, 006.4C,00002195
2014-12-16 00:23:24 r, 15.13m,0000000078Hz,0000005867c,0000000.013s, 006.4C,00002195
2014-12-16 00:33:24 r, 15.22m,0000000072Hz,0000006362c,0000000.014s, 006.4C,00002195
2014-12-16 00:43:24 r, 15.39m,0000000061Hz,0000007481c,0000000.016s, 006.4C,00002195
2014-12-16 00:53:24 r, 15.77m,0000000043Hz,0000010609c,0000000.023s, 006.4C,00002195
2014-12-16 01:03:25 r, 15.55m,0000000053Hz,0000008663c,0000000.019s, 006.4C,00002195
2014-12-16 01:13:25 r, 15.52m,0000000055Hz,0000008393c,0000000.018s, 006.4C,00002195
2014-12-16 01:23:25 r, 15.41m,0000000060Hz,0000007599c,0000000.016s, 006.4C,00002195
2014-12-16 01:33:25 r, 15.46m,0000000057Hz,0000007969c,0000000.017s, 006.4C,00002195
2014-12-16 01:43:25 r, 15.71m,0000000046Hz,0000010025c,0000000.022s, 006.4C,00002195
2014-12-16 01:53:25 r, 15.42m,0000000061Hz,0000007663c,0000000.017s, 006.4C,00002195
2014-12-16 02:03:25 r, 15.60m,0000000051Hz,0000009109c,0000000.020s, 006.4C,00002195
2014-12-16 02:13:25 r, 15.64m,0000000049Hz,0000009404c,0000000.020s, 006.4C,00002195
2014-12-16 02:23:25 r, 15.63m,0000000049Hz,0000009331c,0000000.020s, 006.4C,00002195
2014-12-16 02:33:25 r, 15.79m,0000000043Hz,0000010842c,0000000.024s, 006.4C,00002195
2014-12-16 02:43:25 r, 15.67m,0000000048Hz,0000009679c,0000000.021s, 006.4C,00002195
2014-12-16 02:53:25 r, 15.97m,0000000036Hz,0000012741c,0000000.028s, 006.1C,00002195
2014-12-16 03:03:25 r, 15.68m,0000000046Hz,0000009766c,0000000.021s, 005.8C,00002195
2014-12-16 03:13:25 r, 15.75m,0000000044Hz,0000010399c,0000000.023s, 006.1C,00002195
2014-12-16 03:23:25 r, 15.75m,0000000044Hz,0000010465c,0000000.023s, 005.8C,00002195
2014-12-16 03:33:25 r, 15.87m,0000000040Hz,0000011547c,0000000.025s, 005.8C,00002195
2014-12-16 03:43:25 r, 15.76m,0000000044Hz,0000010505c,0000000.023s, 005.8C,00002195
2014-12-16 03:53:25 r, 15.64m,0000000050Hz,0000009389c,0000000.020s, 005.4C,00002195
2014-12-16 04:03:25 r, 15.33m,0000000064Hz,0000007081c,0000000.015s, 005.4C,00002195
2014-12-16 04:13:25 r, 15.25m,0000000071Hz,0000006549c,0000000.014s, 005.4C,00002195
2014-12-16 04:23:25 r, 15.29m,0000000067Hz,0000006816c,0000000.015s, 005.4C,00002195
2014-12-16 04:33:25 r, 15.27m,0000000068Hz,0000006695c,0000000.015s, 005.1C,00002195
2014-12-16 04:43:25 r, 15.67m,0000000048Hz,0000009635c,0000000.021s, 005.1C,00002195
2014-12-16 04:53:25 r, 15.82m,0000000041Hz,0000011087c,0000000.024s, 005.1C,00002195
2014-12-16 05:03:25 r, 16.00m,0000000035Hz,0000013098c,0000000.028s, 005.1C,00002195
2014-12-16 05:13:25 r, 16.67m,0000000019Hz,0000024315c,0000000.053s, 004.8C,00002195
2014-12-16 05:23:25 r, 17.25m,0000000011Hz,0000041301c,0000000.090s, 004.5C,00002195
2014-12-16 05:33:25 r, 17.18m,0000000011Hz,0000038790c,0000000.084s, 004.1C,00002195
2014-12-16 05:43:25 r, 17.47m,0000000009Hz,0000050939c,0000000.111s, 003.8C,00002195
2014-12-16 05:53:25 r, 17.61m,0000000008Hz,0000057599c,0000000.125s, 003.8C,00002195
2014-12-16 06:03:25 r, 17.03m,0000000013Hz,0000033964c,0000000.074s, 003.5C,00002195
2014-12-16 06:13:25 r, 17.74m,0000000007Hz,0000064904c,0000000.141s, 003.5C,00002195
2014-12-16 06:23:25 r, 17.55m,0000000009Hz,0000054716c,0000000.119s, 003.2C,00002195
2014-12-16 06:33:25 r, 17.78m,0000000007Hz,0000067479c,0000000.146s, 003.2C,00002195
2014-12-16 06:43:25 r, 17.76m,0000000007Hz,0000066559c,0000000.144s, 003.2C,00002195
2014-12-16 06:53:25 r, 17.71m,0000000008Hz,0000063365c,0000000.138s, 003.2C,00002195
2014-12-16 07:03:25 r, 17.51m,0000000009Hz,0000052909c,0000000.115s, 002.9C,00002195
2014-12-16 07:13:25 r, 17.17m,0000000012Hz,0000038400c,0000000.083s, 002.9C,00002195
2014-12-16 07:23:25 r, 16.27m,0000000027Hz,0000016808c,0000000.036s, 002.9C,00002195
2014-12-16 07:33:25 r, 14.77m,0000000107Hz,0000004242c,0000000.009s, 002.9C,00002195
2014-12-16 07:43:25 r, 12.94m,0000000594Hz,0000000000c,0000000.000s, 002.9C,00002195
2014-12-16 07:53:25 r, 11.06m,0000003364Hz,0000000000c,0000000.000s, 002.9C,00002195
2014-12-16 08:03:25 r, 09.37m,0000015921Hz,0000000000c,0000000.000s, 002.5C,00002195
2014-12-16 08:13:25 r, 08.11m,0000050437Hz,0000000000c,0000000.000s, 002.5C,00002195
2014-12-16 08:23:25 r, 07.28m,0000109147Hz,0000000000c,0000000.000s, 002.9C,00002195
2014-12-16 08:33:25 r, 06.69m,0000187539Hz,0000000000c,0000000.000s, 002.5C,00002195
2014-12-16 08:43:25 r, 06.27m,0000277717Hz,0000000000c,0000000.000s, 002.5C,00002195
2014-12-16 08:53:25 r, 05.94m,0000375512Hz,0000000000c,0000000.000s, 002.9C,00002195
2014-12-16 09:03:25 r, 00.00m,0000494246Hz,0000000000c,0000000.000s, 002.9C,00002195
2014-12-16 09:13:25 r, 00.00m,0000561110Hz,0000000000c,0000000.000s, 002.9C,00002195
2014-12-16 09:23:25 r, 00.00m,0000560991Hz,0000000000c,0000000.000s, 003.2C,00002195
2014-12-16 09:33:25 r, 00.00m,0000561151Hz,0000000000c,0000000.000s, 003.5C,00002195
2014-12-16 09:43:25 r, 00.00m,0000561303Hz,0000000000c,0000000.000s, 004.8C,00002195
2014-12-16 09:53:25 r, 00.00m,0000561492Hz,0000000000c,0000000.000s, 005.8C,00002195
2014-12-16 10:03:25 r, 00.00m,0000561647Hz,0000000000c,0000000.000s, 006.7C,00002195
2014-12-16 10:13:25 r, 00.00m,0000561685Hz,0000000000c,0000000.000s, 007.7C,00002195
2014-12-16 10:23:25 r, 00.00m,0000561785Hz,0000000000c,0000000.000s, 008.3C,00002195
2014-12-16 10:33:25 r, 00.00m,0000561899Hz,0000000000c,0000000.000s, 008.7C,00002195
2014-12-16 10:43:25 r, 00.00m,0000561903Hz,0000000000c,0000000.000s, 009.0C,00002195
2014-12-16 10:53:25 r, 00.00m,0000562008Hz,0000000000c,0000000.000s, 009.3C,00002195
2014-12-16 11:03:25 r, 00.00m,0000562133Hz,0000000000c,0000000.000s, 009.3C,00002195
2014-12-16 11:13:25 r, 00.00m,0000562020Hz,0000000000c,0000000.000s, 009.3C,00002195
2014-12-16 11:23:25 r, 00.00m,0000561961Hz,0000000000c,0000000.000s, 009.3C,00002195
2014-12-16 11:33:25 r, 00.00m,0000562048Hz,0000000000c,0000000.000s, 009.6C,00002195
2014-12-16 11:43:25 r, 00.00m,0000562162Hz,0000000000c,0000000.000s, 009.9C,00002195
2014-12-16 11:53:25 r, 00.00m,0000562099Hz,0000000000c,0000000.000s, 009.9C,00002195
2014-12-16 12:03:25 r, 00.00m,0000562047Hz,0000000000c,0000000.000s, 009.9C,00002195
2014-12-16 12:13:25 r, 00.00m,0000562098Hz,0000000000c,0000000.000s, 010.3C,00002195
2014-12-16 12:23:25 r, 00.00m,0000562204Hz,0000000000c,0000000.000s, 010.6C,00002195
2014-12-16 12:33:25 r, 00.00m,0000562080Hz,0000000000c,0000000.000s, 010.6C,00002195
2014-12-16 12:43:25 r, 00.00m,0000562226Hz,0000000000c,0000000.000s, 010.6C,00002195
2014-12-16 12:53:25 r, 00.00m,0000562208Hz,0000000000c,0000000.000s, 010.6C,00002195
2014-12-16 13:03:25 r, 00.00m,0000562160Hz,0000000000c,0000000.000s, 010.6C,00002195
2014-12-16 13:13:25 r, 00.00m,0000562090Hz,0000000000c,0000000.000s, 010.9C,00002195
2014-12-16 13:23:25 r, 00.00m,0000562243Hz,0000000000c,0000000.000s, 010.9C,00002195
2014-12-16 13:33:25 r, 00.00m,0000562039Hz,0000000000c,0000000.000s, 010.9C,00002195
2014-12-16 13:43:25 r, 00.00m,0000562100Hz,0000000000c,0000000.000s, 010.6C,00002195
2014-12-16 13:53:25 r, 00.00m,0000561952Hz,0000000000c,0000000.000s, 009.3C,00002195
2014-12-16 14:03:25 r, 00.00m,0000561766Hz,0000000000c,0000000.000s, 008.7C,00002195
2014-12-16 14:13:25 r, 00.00m,0000561788Hz,0000000000c,0000000.000s, 008.3C,00002195
2014-12-16 14:23:25 r, 00.00m,0000561769Hz,0000000000c,0000000.000s, 007.7C,00002195
2014-12-16 14:33:25 r, 00.00m,0000561742Hz,0000000000c,0000000.000s, 007.7C,00002195
2014-12-16 14:43:25 r, 00.00m,0000561744Hz,0000000000c,0000000.000s, 007.4C,00002195
2014-12-16 14:53:25 r, 00.00m,0000561603Hz,0000000000c,0000000.000s, 007.4C,00002195
2014-12-16 15:03:25 r, 00.00m,0000561699Hz,0000000000c,0000000.000s, 007.0C,00002195
2014-12-16 15:13:25 r, 00.00m,0000561614Hz,0000000000c,0000000.000s, 007.0C,00002195
2014-12-16 15:23:25 r, 00.00m,0000561585Hz,0000000000c,0000000.000s, 007.0C,00002195
2014-12-16 15:33:25 r, 00.00m,0000561620Hz,0000000000c,0000000.000s, 007.0C,00002195
2014-12-16 15:43:25 r, 00.00m,0000506158Hz,0000000000c,0000000.000s, 006.7C,00002195
2014-12-16 15:53:25 r, 00.00m,0000414115Hz,0000000000c,0000000.000s, 006.7C,00002195
2014-12-16 16:03:25 r, 06.13m,0000314894Hz,0000000000c,0000000.000s, 006.4C,00002195
2014-12-16 16:13:25 r, 06.54m,0000215516Hz,0000000000c,0000000.000s, 006.7C,00002195
2014-12-16 16:23:25 r, 07.12m,0000126114Hz,0000000000c,0000000.000s, 006.4C,00002195
2014-12-16 16:33:25 r, 07.95m,0000058899Hz,0000000000c,0000000.000s, 006.4C,00002195
2014-12-16 16:43:25 r, 09.12m,0000020069Hz,0000000000c,0000000.000s, 006.1C,00002195
2014-12-16 16:53:25 r, 10.71m,0000004630Hz,0000000000c,0000000.000s, 005.8C,00002195
2014-12-16 17:03:25 r, 12.64m,0000000787Hz,0000000000c,0000000.000s, 005.4C,00002195
2014-12-16 17:13:25 r, 14.52m,0000000139Hz,0000000000c,0000000.000s, 005.4C,00002195
2014-12-16 17:23:25 r, 16.02m,0000000035Hz,0000013301c,0000000.029s, 005.4C,00002195
2014-12-16 17:33:25 r, 16.99m,0000000014Hz,0000032702c,0000000.071s, 005.4C,00002195
2014-12-16 17:43:25 r, 17.51m,0000000009Hz,0000052450c,0000000.114s, 005.1C,00002195
2014-12-16 17:53:25 r, 17.66m,0000000008Hz,0000060562c,0000000.131s, 005.1C,00002195
2014-12-16 18:03:25 r, 17.73m,0000000008Hz,0000064205c,0000000.139s, 005.1C,00002195
2014-12-16 18:13:25 r, 17.74m,0000000007Hz,0000065255c,0000000.142s, 005.1C,00002195
2014-12-16 18:23:25 r, 17.74m,0000000007Hz,0000065118c,0000000.141s, 005.1C,00002195
2014-12-16 18:33:25 r, 17.74m,0000000007Hz,0000065253c,0000000.142s, 005.1C,00002195
2014-12-16 18:43:25 r, 17.74m,0000000007Hz,0000065206c,0000000.142s, 005.1C,00002195
2014-12-16 18:53:25 r, 17.75m,0000000007Hz,0000065290c,0000000.142s, 005.1C,00002195
2014-12-16 19:03:25 r, 17.74m,0000000007Hz,0000064709c,0000000.140s, 005.1C,00002195
2014-12-16 19:13:25 r, 17.74m,0000000007Hz,0000064581c,0000000.140s, 004.8C,00002195
2014-12-16 19:23:25 r, 17.73m,0000000007Hz,0000064399c,0000000.140s, 004.8C,00002195
2014-12-16 19:33:25 r, 17.77m,0000000007Hz,0000066954c,0000000.145s, 004.8C,00002195
2014-12-16 19:43:25 r, 17.78m,0000000007Hz,0000067147c,0000000.146s, 004.8C,00002195
2014-12-16 19:53:25 r, 17.76m,0000000006Hz,0000066517c,0000000.144s, 004.5C,00002195
2014-12-16 20:03:25 r, 17.77m,0000000007Hz,0000066951c,0000000.145s, 004.5C,00002195
2014-12-16 20:13:25 r, 17.76m,0000000007Hz,0000066550c,0000000.144s, 004.1C,00002195
2014-12-16 20:23:25 r, 17.76m,0000000007Hz,0000066183c,0000000.144s, 004.1C,00002195
2014-12-16 20:33:25 r, 17.73m,0000000007Hz,0000064123c,0000000.139s, 004.1C,00002195
2014-12-16 20:43:25 r, 17.68m,0000000008Hz,0000061212c,0000000.133s, 004.1C,00002195
2014-12-16 20:53:25 r, 17.56m,0000000008Hz,0000054894c,0000000.119s, 004.1C,00002195
2014-12-16 21:03:25 r, 17.61m,0000000008Hz,0000057541c,0000000.125s, 004.1C,00002195
2014-12-16 21:13:25 r, 17.71m,0000000008Hz,0000063459c,0000000.138s, 004.1C,00002195
2014-12-16 21:23:25 r, 17.54m,0000000009Hz,0000054144c,0000000.118s, 004.1C,00002195
2014-12-16 21:33:25 r, 17.49m,0000000009Hz,0000051885c,0000000.113s, 004.1C,00002195
2014-12-16 21:43:25 r, 17.63m,0000000007Hz,0000058575c,0000000.127s, 004.1C,00002195
2014-12-16 21:53:25 r, 17.58m,0000000008Hz,0000056319c,0000000.122s, 004.1C,00002195
2014-12-16 22:03:25 r, 17.68m,0000000008Hz,0000061602c,0000000.134s, 004.1C,00002195
2014-12-16 22:13:25 r, 17.66m,0000000008Hz,0000060597c,0000000.132s, 004.1C,00002195
2014-12-16 22:23:25 r, 17.67m,0000000007Hz,0000060748c,0000000.132s, 004.1C,00002195
2014-12-16 22:33:25 r, 17.73m,0000000007Hz,0000064201c,0000000.139s, 004.1C,00002195
2014-12-16 22:43:25 r, 17.78m,0000000007Hz,0000067297c,0000000.146s, 004.1C,00002195
2014-12-16 22:53:25 r, 17.80m,0000000007Hz,0000069107c,0000000.150s, 003.8C,00002195
2014-12-16 23:03:25 r, 17.82m,0000000006Hz,0000070468c,0000000.153s, 003.8C,00002195
2014-12-16 23:13:25 r, 17.85m,0000000006Hz,0000071811c,0000000.156s, 003.8C,00002195
2014-12-16 23:23:25 r, 17.85m,0000000007Hz,0000072003c,0000000.156s, 003.8C,00002195
2014-12-16 23:33:25 r, 17.86m,0000000007Hz,0000072781c,0000000.158s, 003.8C,00002195
2014-12-16 23:43:25 r, 17.82m,0000000007Hz,0000070040c,0000000.152s, 003.8C,00002195
2014-12-16 23:53:25 r, 17.86m,0000000006Hz,0000072659c,0000000.158s, 003.8C,00002195
